| time (UTC) | temp C | wind direction | speed KPH | gust KPH | rain 1hr cm | rain 24hr cm | rain mn cm | humidity % | barometer mb |
| 20260504130312 | 22 | 202 | 8.0 | 14.5 | 0.00 | 0.00 | 0.00 | 37 | 1011.1 |
| 20260504120311 | 21 | 90 | 0.0 | 14.5 | 0.00 | 0.00 | 0.00 | 43 | 1011.5 |
| 20260504110310 | 21 | 180 | 3.2 | 12.9 | 0.00 | 0.00 | 0.00 | 45 | 1012.4 |
| 20260504100309 | 20 | 247 | 0.0 | 8.0 | 0.00 | 0.00 | 0.00 | 49 | 1013.1 |
| 20260504081313 | 17 | 202 | 6.4 | 11.3 | 0.00 | 0.00 | 0.00 | 62 | 1012.8 |
| 20260504080313 | 17 | 180 | 8.0 | 9.7 | 0.00 | 0.00 | 0.00 | 56 | 1012.6 |
| 20260504070312 | 15 | 202 | 1.6 | 4.8 | 0.00 | 0.00 | 0.00 | 56 | 1012.3 |
| 20260504050310 | 10 | 0 | 0.0 | 1.6 | 0.00 | 0.00 | 0.00 | 72 | 1011.4 |
| 20260504045310 | 10 | 45 | 0.0 | 6.4 | 0.00 | 0.00 | 0.00 | 74 | 1011.6 |
| 20260504043310 | 10 | 45 | 3.2 | 4.8 | 0.00 | 0.00 | 0.00 | 74 | 1011.4 |
| 20260504042310 | 9 | 45 | 4.8 | 6.4 | 0.00 | 0.00 | 0.00 | 75 | 1011.4 |
| 20260504041310 | 9 | 22 | 1.6 | 4.8 | 0.00 | 0.00 | 0.00 | 74 | 1011.5 |
| 20260504040309 | 9 | 45 | 6.4 | 6.4 | 0.00 | 0.00 | 0.00 | 75 | 1011.6 |
| 20260504035310 | 9 | 45 | 4.8 | 6.4 | 0.00 | 0.00 | 0.00 | 73 | 1011.6 |
| 20260504033309 | 10 | 45 | 6.4 | 6.4 | 0.00 | 0.00 | 0.00 | 71 | 1011.7 |
| 20260504032309 | 10 | 22 | 6.4 | 8.0 | 0.00 | 0.00 | 0.00 | 72 | 1011.7 |
| 20260504031314 | 10 | 22 | 6.4 | 8.0 | 0.00 | 0.00 | 0.00 | 71 | 1011.7 |
| 20260504030314 | 11 | 45 | 6.4 | 9.7 | 0.00 | 0.00 | 0.00 | 68 | 1011.9 |
| 20260504023313 | 10 | 45 | 6.4 | 9.7 | 0.00 | 0.00 | 0.00 | 69 | 1011.6 |
| 20260504022313 | 11 | 45 | 6.4 | 11.3 | 0.00 | 0.00 | 0.00 | 69 | 1011.8 |
| 20260504021313 | 11 | 360 | 4.8 | 8.0 | 0.00 | 0.00 | 0.00 | 69 | 1011.6 |
| 20260504015313 | 11 | 22 | 6.4 | 9.7 | 0.00 | 0.00 | 0.00 | 66 | 1011.5 |
| 20260504014313 | 11 | 45 | 8.0 | 9.7 | 0.00 | 0.00 | 0.00 | 66 | 1011.7 |
| 20260504013313 | 11 | 45 | 8.0 | 9.7 | 0.00 | 0.00 | 0.00 | 67 | 1011.5 |
| 20260504012312 | 11 | 22 | 4.8 | 8.0 | 0.00 | 0.00 | 0.00 | 66 | 1011.3 |
| 20260504010312 | 11 | 45 | 6.4 | 9.7 | 0.00 | 0.00 | 0.00 | 65 | 1011.1 |
| 20260504005312 | 12 | 45 | 8.0 | 9.7 | 0.00 | 0.00 | 0.00 | 64 | 1011.3 |
| 20260504004312 | 12 | 45 | 6.4 | 8.0 | 0.00 | 0.00 | 0.00 | 63 | 1011.2 |
| 20260504003312 | 12 | 45 | 6.4 | 8.0 | 0.00 | 0.00 | 0.00 | 62 | 1011.2 |
| 20260504002311 | 13 | 45 | 6.4 | 9.7 | 0.00 | 0.00 | 0.00 | 58 | 1011.2 |
| 20260504001311 | 13 | 22 | 4.8 | 9.7 | 0.00 | 0.00 | 0.00 | 59 | 1011.5 |
| 20260504000311 | 12 | 22 | 4.8 | 8.0 | 0.00 | 0.00 | 0.00 | 61 | 1011.3 |
| 20260503234311 | 13 | 45 | 6.4 | 8.0 | 0.00 | 0.00 | 0.00 | 59 | 1011.6 |
| 20260503233311 | 13 | 45 | 6.4 | 9.7 | 0.00 | 0.00 | 0.00 | 58 | 1011.6 |
| 20260503232311 | 13 | 45 | 6.4 | 8.0 | 0.00 | 0.00 | 0.00 | 56 | 1011.4 |
| 20260503231311 | 13 | 45 | 4.8 | 9.7 | 0.00 | 0.00 | 0.00 | 55 | 1011.6 |
| 20260503230311 | 14 | 22 | 6.4 | 8.0 | 0.00 | 0.00 | 0.00 | 55 | 1011.6 |
| 20260503225311 | 14 | 45 | 6.4 | 9.7 | 0.00 | 0.00 | 0.00 | 51 | 1011.5 |
| 20260503224310 | 15 | 45 | 6.4 | 8.0 | 0.00 | 0.00 | 0.00 | 52 | 1011.7 |
| 20260503223310 | 15 | 45 | 11.3 | 16.1 | 0.00 | 0.00 | 0.00 | 50 | 1011.5 |
| 20260503222310 | 15 | 45 | 6.4 | 11.3 | 0.00 | 0.00 | 0.00 | 49 | 1011.5 |
| 20260503221310 | 15 | 45 | 6.4 | 11.3 | 0.00 | 0.00 | 0.00 | 49 | 1011.6 |
| 20260503220310 | 16 | 45 | 6.4 | 11.3 | 0.00 | 0.00 | 0.00 | 47 | 1011.6 |
| 20260503215309 | 16 | 45 | 6.4 | 17.7 | 0.00 | 0.00 | 0.00 | 47 | 1011.3 |
| 20260503214310 | 16 | 22 | 8.0 | 9.7 | 0.00 | 0.00 | 0.00 | 48 | 1011.5 |
| 20260503213309 | 16 | 45 | 8.0 | 12.9 | 0.00 | 0.00 | 0.00 | 47 | 1011.5 |
| 20260503212309 | 16 | 45 | 3.2 | 6.4 | 0.00 | 0.00 | 0.00 | 47 | 1011.4 |
| 20260503211309 | 16 | 22 | 4.8 | 6.4 | 0.00 | 0.00 | 0.00 | 46 | 1011.0 |
| 20260503210314 | 16 | 45 | 6.4 | 9.7 | 0.00 | 0.00 | 0.00 | 48 | 1011.5 |
| 20260503205314 | 15 | 45 | 4.8 | 8.0 | 0.00 | 0.00 | 0.00 | 48 | 1011.1 |
| 20260503203314 | 16 | 22 | 4.8 | 9.7 | 0.00 | 0.00 | 0.00 | 45 | 1011.2 |
| 20260503202313 | 15 | 22 | 6.4 | 11.3 | 0.00 | 0.00 | 0.00 | 46 | 1011.2 |
| 20260503201313 | 15 | 22 | 6.4 | 12.9 | 0.00 | 0.00 | 0.00 | 47 | 1011.3 |
| 20260503194313 | 16 | 22 | 4.8 | 16.1 | 0.00 | 0.00 | 0.00 | 43 | 1011.3 |
| 20260503193313 | 16 | 45 | 6.4 | 11.3 | 0.00 | 0.00 | 0.00 | 43 | 1011.5 |
| 20260503192313 | 16 | 22 | 6.4 | 9.7 | 0.00 | 0.00 | 0.00 | 42 | 1011.5 |
| 20260503190312 | 16 | 22 | 9.7 | 14.5 | 0.00 | 0.00 | 0.00 | 38 | 1011.2 |
| 20260503185312 | 15 | 22 | 8.0 | 12.9 | 0.00 | 0.00 | 0.00 | 35 | 1010.9 |
| 20260503184312 | 15 | 22 | 6.4 | 11.3 | 0.00 | 0.00 | 0.00 | 35 | 1010.9 |
| 20260503183312 | 16 | 45 | 6.4 | 11.3 | 0.00 | 0.00 | 0.00 | 34 | 1010.7 |
| 20260503181312 | 16 | 22 | 6.4 | 9.7 | 0.00 | 0.00 | 0.00 | 37 | 1010.4 |
| 20260503180311 | 17 | 22 | 4.8 | 8.0 | 0.00 | 0.00 | 0.00 | 35 | 1010.1 |
| 20260503175312 | 16 | 22 | 6.4 | 8.0 | 0.00 | 0.00 | 0.00 | 36 | 1009.9 |
| 20260503174311 | 17 | 22 | 6.4 | 6.4 | 0.00 | 0.00 | 0.00 | 39 | 1010.1 |
| 20260503173311 | 17 | 22 | 4.8 | 6.4 | 0.00 | 0.00 | 0.00 | 39 | 1009.9 |
| 20260503172311 | 17 | 22 | 1.6 | 4.8 | 0.00 | 0.00 | 0.00 | 39 | 1010.0 |
| 20260503171311 | 18 | 360 | 4.8 | 6.4 | 0.00 | 0.00 | 0.00 | 34 | 1009.9 |
| 20260503170311 | 19 | 360 | 4.8 | 6.4 | 0.00 | 0.00 | 0.00 | 34 | 1009.9 |
| 20260503150309 | 23 | 180 | 3.2 | 17.7 | 0.00 | 0.00 | 0.00 | 21 | 1011.5 |